CW9254 Weather Reports


Display with metric or nautical units.
time (UTC)temp
F
wind
direction
speed
MPH
gust
MPH
rain 1hr
in
rain 24hr
in
rain mn
in
humidity
%
barometer
mb
20260510060506 62 191 2.0 9.0 0.00 0.01 0.01 67 1029.4
20260510060012 62 228 4.0 8.0 0.00 0.01 0.01 67 1029.4
20260510055504 62 197 2.0 6.0 0.00 0.01 0.01 66 1029.3
20260510055004 62 197 1.0 6.0 0.00 0.01 0.01 66 1029.3
20260510054504 62 197 1.0 5.0 0.00 0.01 0.01 66 1029.3
20260510054003 62 197 1.0 11.0 0.00 0.01 0.01 66 1029.2
20260510053507 62 199 2.0 11.0 0.00 0.01 0.01 66 1029.1
20260510053004 63 198 0.0 7.0 0.00 0.01 0.01 65 1029.1
20260510052504 63 198 2.0 7.0 0.00 0.01 0.01 65 1029.1
20260510052005 63 201 2.0 6.0 0.00 0.01 0.01 65 1029.0
20260510051504 63 206 2.0 9.0 0.00 0.01 0.01 65 1029.1
20260510051004 63 209 2.0 9.0 0.00 0.01 0.01 66 1029.1
20260510050508 62 229 2.0 7.0 0.00 0.01 0.01 65 1029.1
20260510050009 62 233 3.0 7.0 0.00 0.01 0.01 67 1029.1
20260510045504 62 235 2.0 7.0 0.00 0.01 0.01 66 1029.1
20260510045004 62 233 0.0 7.0 0.00 0.01 0.01 66 1029.1
20260510044507 63 232 2.0 7.0 0.00 0.01 0.01 67 1029.1
20260510044005 63 200 2.0 7.0 0.00 0.01 0.01 67 1029.1
20260510043504 63 199 2.0 7.0 0.00 0.01 0.01 67 1029.0
20260510043005 63 197 4.0 7.0 0.00 0.01 0.01 65 1028.9
20260510042506 63 231 1.0 7.0 0.00 0.01 0.01 65 1029.0
20260510042005 63 222 4.0 8.0 0.00 0.01 0.01 66 1029.0
20260510041504 63 201 2.0 8.0 0.00 0.01 0.01 66 1028.9
20260510041004 63 202 4.0 7.0 0.00 0.01 0.01 64 1029.1
20260510040504 63 205 0.0 7.0 0.00 0.01 0.01 64 1029.0
20260510040007 64 206 4.0 7.0 0.00 0.01 0.01 65 1029.2
20260510035504 63 206 2.0 7.0 0.00 0.01 0.01 65 1029.2
20260510035004 64 214 4.0 7.0 0.00 0.01 0.01 64 1029.2
20260510034504 63 204 1.0 7.0 0.00 0.01 0.01 65 1029.1
20260510034004 63 202 2.0 7.0 0.00 0.01 0.01 67 1029.1
20260510033504 63 201 2.0 6.0 0.00 0.01 0.01 67 1029.2
20260510033004 63 201 3.0 8.0 0.00 0.01 0.01 65 1029.3
20260510032504 63 200 4.0 8.0 0.00 0.01 0.01 65 1029.3
20260510032004 63 198 3.0 8.0 0.00 0.01 0.01 66 1029.2
20260510031509 63 206 1.0 7.0 0.00 0.01 0.01 66 1029.4
20260510031004 63 208 2.0 10.0 0.00 0.01 0.01 65 1029.3
20260510030507 63 207 4.0 10.0 0.00 0.01 0.01 64 1029.5
20260510030010 63 217 3.0 6.0 0.00 0.01 0.01 66 1029.5
20260510025505 63 209 2.0 8.0 0.00 0.01 0.01 67 1029.5
20260510025004 62 206 4.0 8.0 0.00 0.01 0.01 67 1029.6
20260510024504 62 211 2.0 8.0 0.00 0.01 0.01 68 1029.7
20260510024008 62 208 3.0 8.0 0.00 0.01 0.01 68 1029.8
20260510023504 62 207 3.0 7.0 0.00 0.01 0.01 67 1029.8
20260510023004 62 205 3.0 7.0 0.00 0.01 0.01 68 1029.9
20260510022504 62 206 2.0 6.0 0.00 0.01 0.01 68 1029.9
20260510022004 62 206 1.0 3.0 0.00 0.01 0.01 69 1029.9
20260510021504 62 206 0.0 4.0 0.00 0.01 0.01 71 1030.1
20260510021008 62 206 0.0 4.0 0.00 0.01 0.01 68 1030.1
20260510020504 62 209 1.0 5.0 0.00 0.01 0.01 68 1030.2
20260510020007 61 208 2.0 4.0 0.00 0.01 0.01 69 1030.4
20260510015504 62 206 1.0 9.0 0.00 0.01 0.01 69 1030.3
20260510015008 61 207 4.0 9.0 0.00 0.01 0.01 70 1030.4
20260510014506 61 205 2.0 7.0 0.00 0.01 0.01 70 1030.3
20260510014004 61 205 3.0 7.0 0.00 0.01 0.01 70 1030.4
20260510013504 61 203 1.0 4.0 0.00 0.01 0.01 71 1030.5
20260510013004 61 279 2.0 5.0 0.00 0.01 0.01 72 1030.6
20260510012504 61 279 0.0 5.0 0.00 0.01 0.01 71 1030.6
20260510012004 61 279 1.0 7.0 0.00 0.01 0.01 73 1030.7
20260510011504 61 280 2.0 7.0 0.00 0.01 0.01 73 1030.6
20260510011004 61 280 0.0 4.0 0.00 0.01 0.01 75 1030.7
20260510010504 60 281 0.0 4.0 0.00 0.01 0.01 75 1030.7
20260510010007 60 280 0.0 5.0 0.00 0.01 0.01 76 1030.7
20260510005504 60 280 1.0 6.0 0.00 0.01 0.01 78 1030.6
20260510005004 60 280 1.0 5.0 0.00 0.01 0.01 78 1030.7
20260510004504 60 279 3.0 5.0 0.00 0.01 0.01 79 1030.7
20260510004007 60 281 1.0 7.0 0.00 0.01 0.01 82 1030.7
20260510003504 59 280 3.0 7.0 0.00 0.01 0.01 82 1030.7
20260510003004 59 275 0.0 7.0 0.00 0.01 0.01 83 1030.7
20260510002504 59 275 2.0 7.0 0.00 0.01 0.01 86 1030.6
20260510002004 59 276 0.0 6.0 0.00 0.01 0.01 87 1030.6
20260510001504 59 276 1.0 4.0 0.00 0.01 0.01 88 1030.7
20260510001004 58 275 1.0 4.0 0.00 0.01 0.01 89 1030.7
20260510000503 58 277 1.0 4.0 0.00 0.01 0.01 90 1030.8
20260510000010 58 276 0.0 4.0 0.00 0.01 0.01 91 1030.8
20260509235504 57 276 1.0 7.0 0.00 0.01 0.01 92 1030.8
20260509235006 57 276 2.0 7.0 0.00 0.01 0.01 92 1030.7
20260509234504 57 274 0.0 7.0 0.00 0.01 0.01 93 1030.7
20260509234004 57 274 2.0 6.0 0.00 0.01 0.01 93 1030.6
20260509233503 56 274 2.0 6.0 0.00 0.01 0.01 94 1030.6
20260509233004 56 274 2.0 6.0 0.00 0.01 0.01 94 1030.6
20260509232504 56 274 0.0 3.0 0.00 0.01 0.01 94 1030.6
20260509232004 56 274 0.0 2.0 0.00 0.01 0.01 95 1030.6
20260509231504 56 272 0.0 2.0 0.00 0.01 0.01 95 1030.7
20260509231004 56 274 0.0 2.0 0.00 0.01 0.01 95 1030.6
20260509230504 56 274 0.0 2.0 0.00 0.01 0.01 95 1030.6
20260509230005 55 274 0.0 1.0 0.00 0.01 0.01 95 1030.5
20260509225504 55 274 0.0 2.0 0.00 0.01 0.01 95 1030.6
20260509225002 55 275 0.0 2.0 0.00 0.01 0.01 95 1030.5
20260509224503 55 274 0.0 1.0 0.00 0.01 0.01 95 1030.4
20260509224003 55 274 0.0 1.0 0.00 0.01 0.01 95 1030.4
20260509223503 55 274 0.0 2.0 0.00 0.01 0.01 95 1030.4
20260509223003 55 274 0.0 2.0 0.00 0.01 0.01 95 1030.3
20260509222502 55 274 0.0 1.0 0.00 0.01 0.01 95 1030.4
20260509222003 55 274 0.0 1.0 0.00 0.01 0.01 95 1030.3
20260509221503 55 273 0.0 1.0 0.00 0.01 0.01 95 1030.3
20260509221003 55 274 0.0 1.0 0.00 0.01 0.01 95 1030.2
20260509220502 55 274 0.0 1.0 0.00 0.01 0.01 95 1030.0
20260509220006 55 272 0.0 1.0 0.00 0.01 0.01 95 1030.0
20260509215503 55 274 0.0 2.0 0.00 0.02 0.01 95 1029.9
20260509215003 55 274 0.0 2.0 0.00 0.02 0.01 95 1029.7
20260509214505 55 274 0.0 2.0 0.00 0.02 0.01 95 1029.7
20260509214005 55 272 0.0 2.0 0.00 0.02 0.01 95 1029.6
20260509213503 55 274 0.0 2.0 0.00 0.02 0.01 95 1029.5
20260509213003 55 274 0.0 2.0 0.00 0.02 0.01 95 1029.5
20260509212503 55 274 0.0 2.0 0.00 0.02 0.01 95 1029.5
20260509212002 55 274 0.0 1.0 0.00 0.02 0.01 95 1029.4
20260509211508 55 274 0.0 1.0 0.00 0.02 0.01 95 1029.3
20260509211003 55 274 0.0 1.0 0.00 0.02 0.01 95 1029.3
20260509210503 55 273 0.0 1.0 0.00 0.02 0.01 95 1029.3
20260509210010 55 274 0.0 1.0 0.00 0.02 0.01 95 1029.3
20260509205502 55 274 0.0 0.0 0.00 0.02 0.01 95 1029.2
20260509205003 55 274 0.0 1.0 0.00 0.02 0.01 95 1029.2
20260509204503 55 272 0.0 1.0 0.00 0.02 0.01 95 1029.1
20260509204003 55 274 0.0 0.0 0.00 0.02 0.01 95 1029.0
20260509203503 55 274 0.0 1.0 0.00 0.02 0.01 95 1028.8
20260509203005 55 274 0.0 2.0 0.00 0.02 0.01 95 1029.0
20260509202503 55 274 0.0 2.0 0.00 0.02 0.01 95 1028.9
20260509202006 55 274 0.0 2.0 0.00 0.02 0.01 95 1028.8
20260509201503 55 274 0.0 2.0 0.00 0.02 0.01 95 1028.7
20260509201002 55 274 0.0 2.0 0.00 0.02 0.01 95 1028.7
20260509200503 55 273 0.0 3.0 0.00 0.02 0.01 95 1028.6
20260509200005 55 273 1.0 3.0 0.00 0.02 0.01 95 1028.6
20260509195502 55 274 0.0 3.0 0.00 0.02 0.01 95 1028.6
20260509195005 55 273 0.0 3.0 0.00 0.02 0.01 95 1028.5
20260509194502 55 274 0.0 3.0 0.00 0.02 0.01 95 1028.5
20260509194004 55 274 0.0 4.0 0.00 0.02 0.01 95 1028.4
20260509193506 55 274 0.0 3.0 0.00 0.02 0.01 94 1028.4
20260509193007 55 274 0.0 3.0 0.00 0.02 0.01 95 1028.4
20260509192502 55 273 0.0 3.0 0.00 0.02 0.01 94 1028.3
20260509192005 55 274 0.0 2.0 0.00 0.02 0.01 94 1028.2
20260509191502 55 274 0.0 2.0 0.00 0.02 0.01 94 1028.3
20260509191002 55 273 0.0 3.0 0.00 0.02 0.01 94 1028.1
20260509190502 55 273 1.0 3.0 0.00 0.02 0.01 94 1028.1
20260509190006 55 273 0.0 4.0 0.00 0.02 0.01 94 1028.1
20260509185503 55 272 0.0 4.0 0.00 0.02 0.01 94 1028.0
20260509185002 55 274 0.0 2.0 0.00 0.02 0.01 94 1028.0
20260509184504 55 274 0.0 3.0 0.00 0.02 0.01 94 1028.0
20260509184002 55 274 0.0 4.0 0.00 0.02 0.01 94 1028.0
20260509183503 55 273 0.0 4.0 0.00 0.02 0.01 94 1028.0
20260509183003 55 272 0.0 2.0 0.01 0.02 0.01 94 1027.9
20260509182504 55 273 0.0 3.0 0.01 0.02 0.01 94 1027.9
20260509182003 55 272 1.0 3.0 0.01 0.02 0.01 94 1027.9
20260509181503 55 272 0.0 3.0 0.01 0.02 0.01 94 1027.7
20260509181003 55 274 0.0 3.0 0.01 0.02 0.01 94 1027.8
20260509180503 55 274 0.0 2.0 0.01 0.02 0.01 94 1027.7
20260509180005 55 274 0.0 6.0 0.01 0.02 0.01 94 1027.7
20260509175503 55 272 1.0 6.0 0.01 0.02 0.01 94 1027.6
20260509175003 55 273 0.0 3.0 0.01 0.02 0.01 94 1027.6
20260509174503 55 274 0.0 3.0 0.01 0.02 0.01 94 1027.6
20260509174004 55 274 0.0 3.0 0.01 0.02 0.01 94 1027.7
20260509173502 55 274 0.0 3.0 0.01 0.02 0.01 94 1027.7
20260509173003 55 273 0.0 8.0 0.00 0.01 0.00 94 1027.7
20260509172503 55 272 2.0 8.0 0.00 0.01 0.00 94 1027.7
20260509172004 55 271 0.0 4.0 0.00 0.01 0.00 94 1027.8
20260509171508 55 271 0.0 3.0 0.00 0.01 0.00 94 1027.7
20260509171002 55 271 0.0 4.0 0.00 0.01 0.00 94 1027.8
20260509170503 55 270 0.0 1.0 0.00 0.01 0.00 94 1027.9
20260509170020 55 272 0.0 3.0 0.00 0.01 0.00 94 1027.9
20260509165504 55 272 0.0 3.0 0.00 0.01 0.00 94 1027.9
20260509165002 55 271 0.0 3.0 0.00 0.01 0.00 94 1028.0
20260509164503 55 271 0.0 3.0 0.00 0.01 0.00 94 1028.0
20260509164002 55 272 0.0 2.0 0.00 0.01 0.00 94 1028.0
20260509163503 55 273 0.0 4.0 0.00 0.01 0.00 94 1028.0
20260509163008 55 271 0.0 4.0 0.00 0.01 0.00 94 1028.0
20260509162503 56 271 0.0 2.0 0.00 0.01 0.00 94 1028.0
20260509162003 56 271 0.0 2.0 0.00 0.01 0.00 94 1028.0
20260509161504 56 272 0.0 0.0 0.00 0.01 0.00 94 1028.1
20260509161003 56 271 0.0 1.0 0.00 0.01 0.00 94 1028.1
20260509160503 56 271 0.0 2.0 0.00 0.01 0.00 94 1028.1
20260509160007 56 272 0.0 2.0 0.00 0.01 0.00 94 1028.0
20260509155502 56 272 0.0 3.0 0.00 0.01 0.00 94 1028.1
20260509155002 56 271 0.0 3.0 0.00 0.01 0.00 94 1028.1
20260509154503 56 272 0.0 1.0 0.00 0.01 0.00 94 1028.0
20260509154002 56 272 0.0 2.0 0.00 0.01 0.00 94 1028.1
20260509153502 56 271 0.0 2.0 0.00 0.01 0.00 94 1028.2
20260509153002 56 271 1.0 3.0 0.00 0.01 0.00 94 1028.2
20260509152503 56 271 0.0 3.0 0.00 0.01 0.00 94 1028.1
20260509152006 56 272 0.0 3.0 0.00 0.01 0.00 94 1028.2
20260509151503 56 271 1.0 3.0 0.00 0.01 0.00 94 1028.0
20260509151004 56 272 0.0 2.0 0.00 0.01 0.00 94 1028.0
20260509150502 56 271 0.0 2.0 0.00 0.01 0.00 94 1028.2
20260509150015 56 271 0.0 2.0 0.00 0.01 0.00 94 1028.2
20260509145503 56 271 0.0 1.0 0.00 0.01 0.00 94 1028.1
20260509145004 56 272 0.0 0.0 0.00 0.01 0.00 94 1028.1
20260509144503 56 271 0.0 0.0 0.00 0.01 0.00 94 1028.1
20260509144003 56 272 0.0 0.0 0.00 0.01 0.00 94 1028.1
20260509143504 56 272 0.0 0.0 0.00 0.01 0.00 94 1028.1
20260509143003 56 271 0.0 0.0 0.00 0.01 0.00 94 1028.1
20260509142503 56 272 0.0 0.0 0.00 0.01 0.00 94 1028.1
20260509142003 56 272 0.0 1.0 0.00 0.01 0.00 94 1028.0
20260509141507 56 271 0.0 1.0 0.00 0.01 0.00 94 1028.1
20260509141004 56 272 0.0 2.0 0.00 0.01 0.00 93 1028.1
20260509140502 56 268 0.0 2.0 0.00 0.01 0.00 93 1028.1
20260509140007 56 260 0.0 2.0 0.00 0.01 0.00 93 1028.0
20260509135504 56 260 0.0 2.0 0.00 0.01 0.00 93 1028.0
20260509135005 56 259 0.0 2.0 0.00 0.01 0.00 93 1028.0
20260509134509 56 259 0.0 0.0 0.00 0.01 0.00 93 1028.0
20260509134010 56 259 0.0 1.0 0.00 0.01 0.00 93 1028.0
20260509133504 56 260 0.0 3.0 0.00 0.01 0.00 93 1028.0
20260509133005 56 256 0.0 3.0 0.00 0.01 0.00 93 1027.9
20260509132505 56 255 0.0 3.0 0.00 0.01 0.00 93 1027.9
20260509132004 56 252 0.0 2.0 0.00 0.01 0.00 93 1027.8
20260509131508 56 252 0.0 3.0 0.00 0.01 0.00 93 1027.9
20260509131004 56 252 0.0 2.0 0.00 0.01 0.00 93 1027.9
20260509130504 56 251 0.0 2.0 0.00 0.01 0.00 92 1028.1
20260509130015 56 252 0.0 3.0 0.00 0.01 0.00 92 1028.1
20260509125504 56 251 0.0 3.0 0.00 0.01 0.01 93 1028.1
20260509125006 56 247 0.0 2.0 0.00 0.01 0.01 92 1028.2
20260509124508 56 247 0.0 0.0 0.00 0.01 0.01 92 1028.1
20260509124004 56 247 0.0 0.0 0.00 0.01 0.01 92 1028.0
20260509123506 56 247 0.0 2.0 0.00 0.01 0.01 92 1027.9
20260509123005 56 247 0.0 2.0 0.00 0.01 0.01 92 1027.9
20260509122504 56 248 0.0 1.0 0.00 0.01 0.01 92 1028.0
20260509122008 56 247 0.0 3.0 0.00 0.01 0.01 92 1028.0
20260509121512 56 247 0.0 3.0 0.00 0.01 0.01 92 1028.2
20260509121005 55 247 0.0 1.0 0.00 0.01 0.01 92 1028.1
20260509120507 55 247 0.0 1.0 0.00 0.01 0.01 92 1028.2
20260509120007 55 247 0.0 0.0 0.00 0.01 0.01 92 1028.2
20260509115504 55 247 0.0 0.0 0.00 0.01 0.01 92 1028.0
20260509115004 55 247 0.0 2.0 0.00 0.01 0.01 92 1028.0
20260509114507 55 247 0.0 3.0 0.00 0.01 0.01 92 1027.9
20260509114005 55 247 1.0 3.0 0.00 0.01 0.01 92 1027.9
20260509113506 55 247 0.0 1.0 0.00 0.01 0.01 92 1028.0
20260509113004 55 247 0.0 1.0 0.00 0.01 0.01 92 1027.9
20260509112504 55 247 0.0 1.0 0.00 0.01 0.01 92 1027.8
20260509112004 55 246 0.0 1.0 0.00 0.01 0.01 92 1027.8
20260509111504 54 246 0.0 1.0 0.00 0.01 0.01 91 1027.7
20260509111005 54 247 0.0 1.0 0.00 0.01 0.01 91 1027.7
20260509110505 54 247 0.0 0.0 0.00 0.01 0.01 91 1027.8
20260509110006 54 247 0.0 0.0 0.00 0.01 0.01 91 1027.8
20260509105505 54 247 0.0 1.0 0.00 0.01 0.01 91 1027.7
20260509105004 53 245 0.0 1.0 0.00 0.01 0.01 91 1027.5
20260509104505 53 247 0.0 0.0 0.00 0.01 0.01 91 1027.6
20260509104004 53 247 0.0 0.0 0.00 0.01 0.01 90 1027.6
20260509103504 53 247 0.0 0.0 0.00 0.01 0.01 90 1027.7
20260509103004 53 247 0.0 0.0 0.00 0.01 0.01 90 1027.7
20260509102506 53 247 0.0 0.0 0.00 0.01 0.01 90 1027.6
20260509102008 53 247 0.0 1.0 0.00 0.01 0.01 90 1027.7
20260509101505 53 245 0.0 1.0 0.00 0.01 0.01 90 1027.7
20260509101008 53 247 0.0 1.0 0.00 0.01 0.01 90 1027.6
20260509100504 53 247 0.0 0.0 0.00 0.01 0.01 89 1027.6
20260509100018 53 247 0.0 0.0 0.00 0.01 0.01 89 1027.5
20260509095505 53 245 0.0 0.0 0.00 0.01 0.01 89 1027.6
20260509095004 54 247 0.0 0.0 0.00 0.01 0.01 89 1027.6
20260509094511 54 246 0.0 0.0 0.00 0.01 0.01 89 1027.6
20260509094004 54 247 0.0 0.0 0.00 0.01 0.01 88 1027.5
20260509093504 54 247 0.0 0.0 0.00 0.01 0.01 88 1027.5
20260509093004 54 247 0.0 0.0 0.00 0.01 0.01 88 1027.5
20260509092504 54 248 0.0 0.0 0.00 0.01 0.01 88 1027.5
20260509092004 54 247 0.0 1.0 0.00 0.01 0.01 88 1027.4
20260509091504 55 247 0.0 3.0 0.00 0.01 0.01 87 1027.4
20260509091004 55 247 0.0 3.0 0.00 0.01 0.01 87 1027.4
20260509090508 55 247 0.0 1.0 0.00 0.01 0.01 87 1027.3
20260509090007 55 246 0.0 0.0 0.00 0.01 0.01 87 1027.2
20260509085508 55 247 0.0 0.0 0.00 0.01 0.01 86 1027.3
20260509085004 56 247 0.0 0.0 0.00 0.01 0.01 86 1027.3
20260509084511 56 247 0.0 0.0 0.00 0.01 0.01 86 1027.3
20260509084005 56 247 0.0 0.0 0.00 0.01 0.01 86 1027.1
20260509083510 56 247 0.0 0.0 0.00 0.01 0.01 85 1027.0
20260509083005 57 247 0.0 0.0 0.00 0.01 0.01 85 1027.0
20260509082505 57 247 0.0 1.0 0.00 0.01 0.01 85 1027.0
20260509082005 57 247 0.0 1.0 0.00 0.01 0.01 85 1026.9
20260509081505 57 245 0.0 0.0 0.00 0.01 0.01 85 1027.0
20260509081008 57 247 0.0 3.0 0.00 0.01 0.01 85 1026.9
20260509080508 58 247 1.0 3.0 0.00 0.01 0.01 84 1026.9
20260509080006 58 245 0.0 3.0 0.00 0.01 0.01 84 1026.8
20260509075506 58 247 0.0 3.0 0.00 0.01 0.01 84 1026.7
20260509075005 58 247 0.0 2.0 0.00 0.01 0.01 83 1026.6
20260509074504 59 247 0.0 2.0 0.00 0.01 0.01 83 1026.6
20260509074006 59 247 0.0 1.0 0.00 0.01 0.01 83 1026.5
20260509073504 59 247 0.0 2.0 0.00 0.01 0.01 83 1026.4
20260509073004 59 247 0.0 2.0 0.00 0.01 0.01 82 1026.3
20260509072505 60 247 0.0 5.0 0.00 0.01 0.01 82 1026.3
20260509072005 60 247 1.0 5.0 0.00 0.01 0.01 81 1026.1
20260509071504 60 247 0.0 3.0 0.00 0.01 0.01 81 1026.1
20260509071004 60 246 0.0 8.0 0.00 0.01 0.01 80 1026.2
20260509070507 61 247 1.0 8.0 0.00 0.01 0.01 80 1026.1
20260509070008 61 248 1.0 8.0 0.00 0.01 0.01 80 1026.1
20260509065504 61 249 3.0 8.0 0.00 0.01 0.01 79 1026.0
20260509065007 61 248 3.0 8.0 0.00 0.01 0.01 78 1026.0
20260509064504 61 249 3.0 8.0 0.00 0.01 0.01 76 1026.0
20260509064005 62 250 3.0 5.0 0.00 0.01 0.01 76 1025.9
20260509063504 62 249 0.0 7.0 0.00 0.01 0.01 76 1025.9
20260509063004 62 249 2.0 7.0 0.00 0.01 0.01 76 1025.9
20260509062504 62 249 3.0 8.0 0.00 0.01 0.01 76 1025.9
20260509062005 62 250 3.0 8.0 0.00 0.01 0.01 76 1025.9
20260509061505 62 250 3.0 7.0 0.00 0.01 0.01 75 1025.9
20260509061008 62 251 2.0 8.0 0.00 0.01 0.01 76 1025.8